Regional Weather Roundup
Issued by NWS

Home | Current Version | Previous Version | Text Only | Print | Product List | Glossary Off
Versions: 1 2 3 4 5 6 7 8 9 10 11 12 13 14 15 16 17 18 19 20 21 22 23 24 25 26 27 28 29 30 31 32 33 34 35 36 37 38 39 40 41 42 43 44 45 46 47 48 49 50

000
ASUS43 KOAX 270810
RWRNE

WEATHER ROUNDUP FOR NEBRASKA
NATIONAL WEATHER SERVICE OMAHA NE
300 AM CDT FRI MAY 27 2016

NOTES: SATELLITE DATA IS BEING USED TO AUGMENT CLOUD COVER ABOVE
       12000 FEET.
       "FAIR" INDICATES FEW OR NO CLOUDS BELOW 12,000 FEET WITH NO
       SIGNIFICANT WEATHER AND/OR OBSTRUCTIONS TO VISIBILITY.

  * THESE STATIONS DO NOT REPORT WEATHER SUCH AS RAIN...SNOW OR FOG.

NEZ001>004-019>022-054>056-270900-
NEBRASKA PANHANDLE

CITY           SKY/WX    TMP DP  RH WIND       PRES   REMARKS
SCOTTSBLUFF    CLOUDY    50  43  77 N7        29.84F
ALLIANCE       CLOUDY    51  47  86 N9        29.81S
CHADRON        CLOUDY    47  45  93 CALM      29.85S
KIMBALL        CLOUDY    49  44  82 NW9       29.85F
SIDNEY         LGT RAIN  50  47  89 NW8       29.81F
$$

NEZ057>060-069>072-079>082-270900-
SOUTHWEST NEBRASKA

CITY           SKY/WX    TMP DP  RH WIND       PRES   REMARKS
NORTH PLATTE   CLOUDY    56  54  93 SE20G30   29.72R
IMPERIAL       PTCLDY    52  49  89 SE7       29.77R
LEXINGTON      CLOUDY    58  56  93 E8        29.76R
MCCOOK         CLEAR     52  49  89 SE9       29.74F
OGALLALA       PTCLDY    55  50  82 N10       29.74S
$$

NEZ005>010-023>029-035>040-094-270900-
NORTH CENTRAL NEBRASKA

CITY           SKY/WX    TMP DP  RH WIND       PRES   REMARKS
VALENTINE      LGT RAIN  56  52  86 NE13      29.80F
AINSWORTH      LGT RAIN  55  53  91 NW5       29.81F
BROKEN BOW     MOCLDY    58  55  90 S16G26    29.74R
O`NEILL        CLOUDY    60  57  90 CALM      29.79F
ORD            LGT RAIN  59  56  89 NE26G33   29.66F
THEDFORD       CLOUDY    57  54  89 NE9G16    29.80F
$$

NEZ041-046>049-061>064-073>077-083>087-270900-
SOUTH CENTRAL NEBRASKA

CITY           SKY/WX    TMP DP  RH WIND       PRES   REMARKS
GRAND ISLAND   CLOUDY    59  53  80 S21G32    29.71F
AURORA         CLOUDY    60  55  84 E6G22     29.67F
HASTINGS       CLOUDY    58  55  90 S8        29.73S
HEBRON         CLOUDY    60  58  96 SE15G22   29.71S
HOLDREGE       CLOUDY    56  55  93 SE13      29.76R
KEARNEY *      CLOUDY    57  54  88 SE16      29.76S
YORK           CLOUDY    63  55  77 E6        29.72F
$$

NEZ011>018-030>034-042>045-270900-
NORTHEAST NEBRASKA

CITY           SKY/WX    TMP DP  RH WIND       PRES   REMARKS
NORFOLK        CLOUDY    60  55  83 S8        29.78F
ALBION         CLOUDY    60  56  88 CALM      29.76F
BLAIR          CLOUDY    62  59  90 S20G25    29.79F
FREMONT        MOCLDY    61  58  90 S15G21    29.79F
TEKAMAH        CLOUDY    63  57  81 S8        29.80R
WAYNE          CLOUDY    60  57  89 S5        29.79F
$$

NEZ050>053-065>068-078-088>093-270900-
SOUTHEAST NEBRASKA

CITY           SKY/WX    TMP DP  RH WIND       PRES   REMARKS
LINCOLN        LGT RAIN  62  59  90 SE13      29.79F
OMAHA EPPLEY   CLOUDY    64  59  83 S14       29.80S
BEATRICE       LGT RAIN  61  59  94 E16       29.75F
FALLS CITY     RAIN      62  62 100 S9        29.83F
NEBRASKA CITY  LGT RAIN  61  61 100 S12       29.83R
PLATTSMOUTH    LGT RAIN  63  62  97 S8        29.84R
$$

NEZ044-045-051>053-067-270900-
OMAHA AREA

CITY           SKY/WX    TMP DP  RH WIND       PRES   REMARKS
OMAHA EPPLEY   CLOUDY    64  59  83 S14       29.80S
BLAIR          CLOUDY    62  59  90 S20G25    29.79F
FREMONT        MOCLDY    61  58  90 S15G21    29.79F
MILLARD        LGT RAIN  63  59  88 S5        29.81S
OFFUTT AFB     LGT RAIN  62  62  97 S13G21    29.78F
PLATTSMOUTH    LGT RAIN  63  62  97 S8        29.84R
WAHOO          CLOUDY    61  59  91 S14       29.80F
$$




USA.gov is the U.S. government's official web portal to all federal, state and local government web resources and services.